User: anonymous
Location: Unspecified
(0.0000°N, 0.0000°E)
Time: 14:11:54
(UTC+00:00)
Language:

METEOR-M - Orbit

View from above orbital plane
View from above orbital plane
View from above satellite
View from above satellite

Ground track
Ground track

The orbit data is extracted from the following two-line orbital elements,

1 35865U 09049A   14265.19118646 -.00000016  00000-0  11738-4 0  9209
2 35865 098.5405 309.6155 0002416 153.0760 207.0534 14.21929344260125
Epoch (UTC): 22 September 2014 04:35:18
Eccentricity: 0.0002416
inclination: 98.5405°
perigee height: 817 km
apogee height: 820 km
right ascension of ascending node: 309.6155°
argument of perigee: 153.0760°
revolutions per day: 14.21929344
mean anomaly at epoch: 207.0534°
orbit number at epoch: 26012

The dashed part of the orbit path shows where the satellite is in the earth's shadow,  

DLR